Location: Niles Junction
(37.5763°N, 121.9714°W)
Time: 04:19:43
(UTC+00:00)

FENGYUN 3A - Pass Details

Date: 29 October 2020
Orbit: 824 x 835 km, 98.4° (Epoch: 23 November)

Event Time Altitude Azimuth Distance (km) Brightness Sun altitude
Rises 12:34:25 0° 14° (NNE) 3,392 7.0 -23.5°
Reaches altitude 10° 12:36:48 10° 16° (NNE) 2,454 6.3 -23.0°
Maximum altitude 12:42:15 77° 102° (ESE) 861 3.8 -22.0°
Drops below altitude 10° 12:47:39 10° 189° (S) 2,436 6.0 -20.9°
Sets 12:50:00 0° 190° (S) 3,364 6.7 -20.4°
